| time (UTC) | temp C | wind direction | speed KPH | gust KPH | rain 1hr cm | rain 24hr cm | rain mn cm | humidity % | barometer mb |
| 20260504041556 | 5 | 87 | 0.0 | 0.0 | 0.00 | 0.00 | 0.00 | 89 | 1018.5 |
| 20260504041053 | 6 | 87 | 0.0 | 0.0 | 0.00 | 0.00 | 0.00 | 89 | 1018.4 |
| 20260504040550 | 6 | 89 | 0.0 | 0.0 | 0.00 | 0.00 | 0.00 | 88 | 1018.5 |
| 20260504040047 | 6 | 84 | 0.0 | 0.0 | 0.00 | 0.00 | 0.00 | 88 | 1018.6 |
| 20260504035544 | 6 | 87 | 0.0 | 0.0 | 0.00 | 0.00 | 0.00 | 88 | 1018.4 |
| 20260504035040 | 6 | 86 | 0.0 | 0.0 | 0.00 | 0.00 | 0.00 | 87 | 1018.5 |
| 20260504034538 | 6 | 91 | 0.0 | 0.0 | 0.00 | 0.00 | 0.00 | 86 | 1018.4 |
| 20260504034034 | 6 | 88 | 0.0 | 0.0 | 0.00 | 0.00 | 0.00 | 85 | 1018.4 |
| 20260504033533 | 6 | 86 | 0.0 | 0.0 | 0.00 | 0.00 | 0.00 | 87 | 1018.4 |
| 20260504033030 | 6 | 94 | 0.0 | 0.0 | 0.00 | 0.00 | 0.00 | 86 | 1018.2 |
| 20260504032527 | 6 | 88 | 0.0 | 0.0 | 0.00 | 0.00 | 0.00 | 87 | 1018.3 |
| 20260504032023 | 6 | 87 | 0.0 | 0.0 | 0.00 | 0.00 | 0.00 | 86 | 1018.3 |
| 20260504031520 | 6 | 88 | 0.0 | 0.0 | 0.00 | 0.00 | 0.00 | 86 | 1018.2 |
| 20260504031016 | 6 | 87 | 0.0 | 0.0 | 0.00 | 0.00 | 0.00 | 87 | 1018.1 |
| 20260504030514 | 6 | 89 | 0.0 | 0.0 | 0.00 | 0.00 | 0.00 | 85 | 1017.8 |
| 20260504030010 | 6 | 89 | 0.0 | 0.0 | 0.00 | 0.00 | 0.00 | 85 | 1018.1 |
| 20260504025507 | 6 | 85 | 0.0 | 0.0 | 0.00 | 0.00 | 0.00 | 84 | 1018.2 |
| 20260504025004 | 7 | 88 | 0.0 | 0.0 | 0.00 | 0.00 | 0.00 | 83 | 1018.1 |
| 20260504024500 | 7 | 87 | 0.0 | 0.0 | 0.00 | 0.00 | 0.00 | 82 | 1018.1 |
| 20260504023958 | 7 | 83 | 0.0 | 0.0 | 0.00 | 0.00 | 0.00 | 82 | 1018.1 |
| 20260504023455 | 7 | 81 | 0.0 | 0.0 | 0.00 | 0.00 | 0.00 | 83 | 1018.3 |
| 20260504022950 | 7 | 85 | 0.0 | 0.0 | 0.00 | 0.00 | 0.00 | 83 | 1018.1 |
| 20260504022446 | 7 | 85 | 0.0 | 0.0 | 0.00 | 0.00 | 0.00 | 82 | 1018.1 |
| 20260504021943 | 7 | 89 | 0.0 | 0.0 | 0.00 | 0.00 | 0.00 | 81 | 1018.2 |
| 20260504021440 | 7 | 86 | 0.0 | 0.0 | 0.00 | 0.00 | 0.00 | 80 | 1018.2 |
| 20260504020938 | 8 | 85 | 0.0 | 0.0 | 0.00 | 0.00 | 0.00 | 79 | 1018.2 |
| 20260504020434 | 8 | 82 | 0.0 | 0.0 | 0.00 | 0.00 | 0.00 | 79 | 1018.2 |
| 20260504015931 | 8 | 84 | 0.0 | 0.0 | 0.00 | 0.00 | 0.00 | 79 | 1018.0 |
| 20260504015427 | 8 | 88 | 0.0 | 0.0 | 0.00 | 0.00 | 0.00 | 76 | 1018.0 |
| 20260504014923 | 8 | 85 | 0.0 | 0.0 | 0.00 | 0.00 | 0.00 | 77 | 1017.7 |
| 20260504014419 | 8 | 74 | 0.0 | 0.0 | 0.00 | 0.00 | 0.00 | 77 | 1017.7 |
| 20260504013916 | 8 | 93 | 0.0 | 0.0 | 0.00 | 0.00 | 0.00 | 77 | 1017.7 |
| 20260504013415 | 8 | 85 | 0.0 | 0.0 | 0.00 | 0.00 | 0.00 | 75 | 1017.6 |
| 20260504012910 | 8 | 85 | 0.0 | 0.0 | 0.00 | 0.00 | 0.00 | 75 | 1017.6 |
| 20260504012408 | 9 | 86 | 0.0 | 0.0 | 0.00 | 0.00 | 0.00 | 74 | 1017.7 |
| 20260504011906 | 9 | 88 | 0.0 | 0.0 | 0.00 | 0.00 | 0.00 | 73 | 1017.6 |
| 20260504011403 | 10 | 85 | 0.0 | 0.0 | 0.00 | 0.00 | 0.00 | 73 | 1017.5 |
| 20260504010859 | 10 | 88 | 0.0 | 0.0 | 0.00 | 0.00 | 0.00 | 72 | 1017.7 |
| 20260504010355 | 10 | 86 | 0.0 | 0.0 | 0.00 | 0.00 | 0.00 | 68 | 1017.6 |
| 20260504005851 | 10 | 86 | 0.0 | 0.0 | 0.00 | 0.00 | 0.00 | 69 | 1017.5 |
| 20260504005348 | 10 | 86 | 0.0 | 0.0 | 0.00 | 0.00 | 0.00 | 67 | 1017.6 |
| 20260504004846 | 10 | 89 | 0.0 | 0.0 | 0.00 | 0.00 | 0.00 | 65 | 1017.5 |
| 20260504004343 | 11 | 80 | 0.0 | 0.0 | 0.00 | 0.00 | 0.00 | 63 | 1017.3 |
| 20260504003839 | 11 | 88 | 0.0 | 0.0 | 0.00 | 0.00 | 0.00 | 63 | 1017.2 |
| 20260504003336 | 12 | 88 | 0.0 | 0.0 | 0.00 | 0.00 | 0.00 | 60 | 1017.2 |
| 20260504002832 | 12 | 89 | 0.0 | 0.0 | 0.00 | 0.00 | 0.00 | 57 | 1017.1 |
| 20260504002329 | 13 | 89 | 0.0 | 0.0 | 0.00 | 0.00 | 0.00 | 56 | 1017.2 |
| 20260504001827 | 13 | 89 | 0.0 | 0.0 | 0.00 | 0.00 | 0.00 | 52 | 1017.1 |
| 20260504001324 | 13 | 89 | 0.0 | 0.0 | 0.00 | 0.00 | 0.00 | 49 | 1017.2 |
| 20260504000821 | 14 | 65 | 0.0 | 1.6 | 0.00 | 0.00 | 0.00 | 47 | 1017.2 |
| 20260504000318 | 15 | 98 | 0.0 | 0.0 | 0.00 | 0.00 | 0.00 | 46 | 1017.2 |
| 20260503235816 | 15 | 87 | 0.0 | 0.0 | 0.00 | 0.00 | 0.00 | 45 | 1017.2 |
| 20260503235314 | 15 | 91 | 0.0 | 0.0 | 0.00 | 0.00 | 0.00 | 44 | 1017.1 |
| 20260503234811 | 15 | 91 | 0.0 | 0.0 | 0.00 | 0.00 | 0.00 | 43 | 1017.2 |
| 20260503234308 | 15 | 85 | 0.0 | 0.0 | 0.00 | 0.00 | 0.00 | 41 | 1017.2 |
| 20260503233806 | 15 | 95 | 0.0 | 0.0 | 0.00 | 0.00 | 0.00 | 43 | 1017.0 |
| 20260503233301 | 15 | 78 | 0.0 | 0.0 | 0.00 | 0.00 | 0.00 | 41 | 1017.2 |
| 20260503232758 | 15 | 34 | 1.6 | 3.2 | 0.00 | 0.00 | 0.00 | 40 | 1017.2 |
| 20260503232256 | 15 | 55 | 1.6 | 3.2 | 0.00 | 0.00 | 0.00 | 40 | 1017.2 |
| 20260503231754 | 15 | 82 | 1.6 | 1.6 | 0.00 | 0.00 | 0.00 | 40 | 1017.2 |
| 20260503231251 | 16 | 107 | 1.6 | 1.6 | 0.00 | 0.00 | 0.00 | 40 | 1017.3 |
| 20260503230746 | 16 | 88 | 0.0 | 0.0 | 0.00 | 0.00 | 0.00 | 39 | 1017.2 |
| 20260503230244 | 16 | 80 | 0.0 | 0.0 | 0.00 | 0.00 | 0.00 | 39 | 1017.5 |
| 20260503225742 | 16 | 50 | 3.2 | 3.2 | 0.00 | 0.00 | 0.00 | 38 | 1017.4 |
| 20260503225242 | 16 | 66 | 3.2 | 3.2 | 0.00 | 0.00 | 0.00 | 38 | 1017.6 |
| 20260503224738 | 16 | 128 | 0.0 | 0.0 | 0.00 | 0.00 | 0.00 | 38 | 1017.5 |
| 20260503224236 | 16 | 77 | 0.0 | 1.6 | 0.00 | 0.00 | 0.00 | 39 | 1017.3 |
| 20260503223734 | 16 | 107 | 1.6 | 1.6 | 0.00 | 0.00 | 0.00 | 36 | 1017.2 |
| 20260503223231 | 16 | 115 | 1.6 | 3.2 | 0.00 | 0.00 | 0.00 | 36 | 1017.3 |
| 20260503222727 | 16 | 72 | 1.6 | 1.6 | 0.00 | 0.00 | 0.00 | 35 | 1017.4 |
| 20260503222225 | 17 | 129 | 1.6 | 1.6 | 0.00 | 0.00 | 0.00 | 35 | 1017.3 |
| 20260503221723 | 17 | 22 | 1.6 | 3.2 | 0.00 | 0.00 | 0.00 | 35 | 1017.2 |
| 20260503221220 | 17 | 89 | 0.0 | 0.0 | 0.00 | 0.00 | 0.00 | 35 | 1017.3 |
| 20260503220717 | 17 | 77 | 1.6 | 1.6 | 0.00 | 0.00 | 0.00 | 39 | 1017.2 |
| 20260503220214 | 17 | 50 | 3.2 | 3.2 | 0.00 | 0.00 | 0.00 | 35 | 1017.2 |
| 20260503215705 | 17 | 7 | 1.6 | 1.6 | 0.00 | 0.00 | 0.00 | 37 | 1017.3 |
| 20260503215201 | 17 | 18 | 1.6 | 3.2 | 0.00 | 0.00 | 0.00 | 35 | 1017.4 |
| 20260503214700 | 17 | 59 | 1.6 | 3.2 | 0.00 | 0.00 | 0.00 | 35 | 1017.5 |
| 20260503214156 | 17 | 91 | 0.0 | 0.0 | 0.00 | 0.00 | 0.00 | 33 | 1017.4 |
| 20260503213655 | 17 | 157 | 1.6 | 3.2 | 0.00 | 0.00 | 0.00 | 34 | 1017.4 |
| 20260503213152 | 17 | 76 | 1.6 | 1.6 | 0.00 | 0.00 | 0.00 | 34 | 1017.4 |
| 20260503212649 | 17 | 127 | 1.6 | 3.2 | 0.00 | 0.00 | 0.00 | 32 | 1017.6 |
| 20260503212146 | 17 | 96 | 3.2 | 3.2 | 0.00 | 0.00 | 0.00 | 31 | 1017.6 |
| 20260503211644 | 17 | 87 | 1.6 | 1.6 | 0.00 | 0.00 | 0.00 | 33 | 1017.7 |
| 20260503211139 | 17 | 333 | 3.2 | 3.2 | 0.00 | 0.00 | 0.00 | 35 | 1017.5 |
| 20260503210636 | 18 | 129 | 1.6 | 3.2 | 0.00 | 0.00 | 0.00 | 36 | 1017.8 |
| 20260503210132 | 18 | 0 | 1.6 | 3.2 | 0.00 | 0.00 | 0.00 | 33 | 1017.8 |
| 20260503205622 | 17 | 99 | 0.0 | 0.0 | 0.00 | 0.00 | 0.00 | 35 | 1017.7 |
| 20260503205119 | 18 | 47 | 3.2 | 4.8 | 0.00 | 0.00 | 0.00 | 33 | 1018.0 |
| 20260503204616 | 18 | 339 | 3.2 | 4.8 | 0.00 | 0.00 | 0.00 | 34 | 1018.1 |
| 20260503204114 | 18 | 73 | 0.0 | 0.0 | 0.00 | 0.00 | 0.00 | 32 | 1017.8 |
| 20260503203610 | 18 | 78 | 1.6 | 1.6 | 0.00 | 0.00 | 0.00 | 34 | 1017.7 |
| 20260503203108 | 18 | 309 | 4.8 | 6.4 | 0.00 | 0.00 | 0.00 | 34 | 1018.1 |
| 20260503202605 | 18 | 69 | 1.6 | 1.6 | 0.00 | 0.00 | 0.00 | 35 | 1018.2 |
| 20260503202103 | 19 | 93 | 0.0 | 0.0 | 0.00 | 0.00 | 0.00 | 34 | 1018.2 |
| 20260503201601 | 19 | 88 | 0.0 | 0.0 | 0.00 | 0.00 | 0.00 | 34 | 1018.3 |
| 20260503201058 | 18 | 318 | 1.6 | 3.2 | 0.00 | 0.00 | 0.00 | 36 | 1018.5 |
| 20260503200554 | 18 | 100 | 1.6 | 3.2 | 0.00 | 0.00 | 0.00 | 33 | 1018.4 |
| 20260503200051 | 18 | 27 | 0.0 | 3.2 | 0.00 | 0.00 | 0.00 | 32 | 1018.4 |
| 20260503195548 | 18 | 12 | 3.2 | 3.2 | 0.00 | 0.00 | 0.00 | 33 | 1018.6 |
| 20260503195044 | 18 | 58 | 1.6 | 3.2 | 0.00 | 0.00 | 0.00 | 33 | 1018.4 |
| 20260503194542 | 18 | 17 | 3.2 | 3.2 | 0.00 | 0.00 | 0.00 | 32 | 1018.6 |
| 20260503194041 | 18 | 74 | 4.8 | 4.8 | 0.00 | 0.00 | 0.00 | 33 | 1018.6 |
| 20260503193539 | 18 | 21 | 3.2 | 4.8 | 0.00 | 0.00 | 0.00 | 31 | 1018.8 |
| 20260503193039 | 18 | 37 | 1.6 | 3.2 | 0.00 | 0.00 | 0.00 | 28 | 1018.8 |
| 20260503192535 | 18 | 73 | 1.6 | 1.6 | 0.00 | 0.00 | 0.00 | 33 | 1019.0 |
| 20260503192031 | 18 | 51 | 1.6 | 1.6 | 0.00 | 0.00 | 0.00 | 35 | 1019.1 |
| 20260503191528 | 18 | 339 | 3.2 | 3.2 | 0.00 | 0.00 | 0.00 | 32 | 1019.0 |
| 20260503191025 | 18 | 17 | 4.8 | 4.8 | 0.00 | 0.00 | 0.00 | 32 | 1019.0 |
| 20260503190522 | 18 | 155 | 3.2 | 3.2 | 0.00 | 0.00 | 0.00 | 31 | 1019.0 |
| 20260503190019 | 19 | 47 | 1.6 | 3.2 | 0.00 | 0.00 | 0.00 | 31 | 1019.1 |
| 20260503185515 | 18 | 101 | 0.0 | 1.6 | 0.00 | 0.00 | 0.00 | 34 | 1019.2 |
| 20260503185010 | 18 | 55 | 1.6 | 1.6 | 0.00 | 0.00 | 0.00 | 35 | 1019.3 |
| 20260503184506 | 18 | 20 | 4.8 | 4.8 | 0.00 | 0.00 | 0.00 | 33 | 1019.4 |
| 20260503184003 | 18 | 84 | 0.0 | 1.6 | 0.00 | 0.00 | 0.00 | 34 | 1019.3 |
| 20260503183459 | 18 | 114 | 1.6 | 1.6 | 0.00 | 0.00 | 0.00 | 32 | 1019.5 |
| 20260503182956 | 18 | 6 | 3.2 | 4.8 | 0.00 | 0.00 | 0.00 | 36 | 1019.2 |
| 20260503182450 | 18 | 115 | 0.0 | 1.6 | 0.00 | 0.00 | 0.00 | 37 | 1019.3 |
| 20260503181947 | 18 | 54 | 1.6 | 1.6 | 0.00 | 0.00 | 0.00 | 35 | 1019.6 |
| 20260503181444 | 18 | 95 | 3.2 | 3.2 | 0.00 | 0.00 | 0.00 | 35 | 1019.4 |
| 20260503180940 | 18 | 108 | 1.6 | 1.6 | 0.00 | 0.00 | 0.00 | 31 | 1019.4 |
| 20260503180438 | 18 | 92 | 0.0 | 1.6 | 0.00 | 0.00 | 0.00 | 34 | 1019.5 |
| 20260503175935 | 18 | 98 | 1.6 | 1.6 | 0.00 | 0.00 | 0.00 | 34 | 1019.5 |
| 20260503175433 | 18 | 91 | 0.0 | 0.0 | 0.00 | 0.00 | 0.00 | 34 | 1019.7 |
| 20260503174928 | 18 | 94 | 0.0 | 0.0 | 0.00 | 0.00 | 0.00 | 35 | 1019.6 |
| 20260503174427 | 17 | 127 | 3.2 | 3.2 | 0.00 | 0.00 | 0.00 | 38 | 1019.8 |
| 20260503173927 | 17 | 149 | 1.6 | 1.6 | 0.00 | 0.00 | 0.00 | 38 | 1019.8 |
| 20260503173423 | 17 | 45 | 1.6 | 1.6 | 0.00 | 0.00 | 0.00 | 38 | 1020.0 |
| 20260503172920 | 17 | 114 | 3.2 | 4.8 | 0.00 | 0.00 | 0.00 | 39 | 1020.0 |
| 20260503172417 | 16 | 37 | 4.8 | 4.8 | 0.00 | 0.00 | 0.00 | 38 | 1019.8 |
| 20260503171913 | 16 | 165 | 1.6 | 3.2 | 0.00 | 0.00 | 0.00 | 42 | 1019.7 |
| 20260503171410 | 17 | 73 | 1.6 | 1.6 | 0.00 | 0.00 | 0.00 | 38 | 1020.1 |
| 20260503170908 | 16 | 97 | 1.6 | 1.6 | 0.00 | 0.00 | 0.00 | 43 | 1020.0 |
| 20260503170404 | 16 | 105 | 1.6 | 3.2 | 0.00 | 0.00 | 0.00 | 42 | 1020.1 |
| 20260503150756 | 12 | 147 | 1.6 | 1.6 | 0.00 | 0.00 | 0.00 | 57 | 1021.0 |
| 20260503150252 | 12 | 99 | 1.6 | 1.6 | 0.00 | 0.00 | 0.00 | 56 | 1020.9 |
| 20260503140217 | 10 | 61 | 1.6 | 1.6 | 0.00 | 0.00 | 0.00 | 72 | 1020.9 |
| 20260503131146 | 6 | 92 | 0.0 | 0.0 | 0.00 | 0.00 | 0.00 | 91 | 1020.8 |
| 20260503130643 | 6 | 92 | 0.0 | 0.0 | 0.00 | 0.00 | 0.00 | 92 | 1020.8 |
| 20260503130141 | 5 | 93 | 0.0 | 0.0 | 0.00 | 0.00 | 0.00 | 94 | 1021.0 |
| 20260503120106 | 3 | 82 | 0.0 | 0.0 | 0.00 | 0.00 | 0.00 | 99 | 1020.8 |
| 20260503110534 | 1 | 81 | 0.0 | 0.0 | 0.00 | 0.00 | 0.00 | 98 | 1019.5 |
| 20260503090421 | 3 | 83 | 0.0 | 0.0 | 0.00 | 0.00 | 0.00 | 97 | 1018.5 |
| 20260503081347 | 3 | 84 | 0.0 | 0.0 | 0.00 | 0.00 | 0.00 | 96 | 1018.2 |
| 20260503080844 | 3 | 84 | 0.0 | 0.0 | 0.00 | 0.00 | 0.00 | 95 | 1018.3 |
| 20260503080341 | 3 | 78 | 0.0 | 0.0 | 0.00 | 0.00 | 0.00 | 95 | 1018.2 |
| 20260503072817 | 3 | 84 | 0.0 | 0.0 | 0.00 | 0.00 | 0.00 | 94 | 1018.0 |
| 20260503072314 | 3 | 84 | 0.0 | 0.0 | 0.00 | 0.00 | 0.00 | 94 | 1017.8 |
| 20260503071810 | 4 | 84 | 0.0 | 0.0 | 0.00 | 0.00 | 0.00 | 93 | 1018.0 |
| 20260503071308 | 4 | 84 | 0.0 | 0.0 | 0.00 | 0.00 | 0.00 | 93 | 1017.8 |
| 20260503070803 | 4 | 83 | 0.0 | 0.0 | 0.00 | 0.00 | 0.00 | 93 | 1017.7 |
| 20260503070301 | 4 | 85 | 0.0 | 0.0 | 0.00 | 0.00 | 0.00 | 93 | 1018.0 |
| 20260503060215 | 6 | 85 | 0.0 | 0.0 | 0.00 | 0.00 | 0.00 | 87 | 1017.6 |
| 20260503054702 | 6 | 86 | 0.0 | 0.0 | 0.00 | 0.00 | 0.00 | 86 | 1017.6 |
| 20260503054159 | 6 | 86 | 0.0 | 0.0 | 0.00 | 0.00 | 0.00 | 85 | 1017.6 |
| 20260503053657 | 6 | 86 | 0.0 | 0.0 | 0.00 | 0.00 | 0.00 | 86 | 1017.7 |
| 20260503053156 | 6 | 86 | 0.0 | 0.0 | 0.00 | 0.00 | 0.00 | 86 | 1017.7 |
| 20260503052652 | 6 | 86 | 0.0 | 0.0 | 0.00 | 0.00 | 0.00 | 85 | 1017.5 |
| 20260503052148 | 6 | 86 | 0.0 | 0.0 | 0.00 | 0.00 | 0.00 | 84 | 1017.5 |
| 20260503051643 | 6 | 84 | 0.0 | 0.0 | 0.00 | 0.00 | 0.00 | 82 | 1017.3 |
| 20260503051141 | 6 | 83 | 0.0 | 0.0 | 0.00 | 0.00 | 0.00 | 83 | 1017.5 |
| 20260503050638 | 7 | 83 | 0.0 | 0.0 | 0.00 | 0.00 | 0.00 | 83 | 1017.3 |
| 20260503050134 | 7 | 83 | 0.0 | 0.0 | 0.00 | 0.00 | 0.00 | 83 | 1017.5 |
| 20260503045632 | 7 | 87 | 0.0 | 0.0 | 0.00 | 0.00 | 0.00 | 78 | 1017.5 |
| 20260503045129 | 7 | 87 | 0.0 | 0.0 | 0.00 | 0.00 | 0.00 | 76 | 1017.3 |
| 20260503044626 | 8 | 92 | 0.0 | 0.0 | 0.00 | 0.00 | 0.00 | 75 | 1017.5 |
| 20260503044123 | 8 | 92 | 0.0 | 0.0 | 0.00 | 0.00 | 0.00 | 74 | 1017.3 |
| 20260503043620 | 8 | 92 | 0.0 | 0.0 | 0.00 | 0.00 | 0.00 | 74 | 1017.2 |
| 20260503043117 | 8 | 87 | 0.0 | 0.0 | 0.00 | 0.00 | 0.00 | 70 | 1017.5 |
| 20260503042613 | 9 | 90 | 1.6 | 1.6 | 0.00 | 0.00 | 0.00 | 69 | 1017.5 |
| 20260503042109 | 9 | 99 | 0.0 | 1.6 | 0.00 | 0.00 | 0.00 | 68 | 1017.7 |